Location: *
(45.9500°N, 9.0833°E)
Time: 00:31:27
(UTC+00:00)

SR - Pass Details

Date: 23 June 2021
Orbit: 577 x 878 km, 66.7° (Epoch: 23 July)

Event Time Altitude Azimuth Distance (km) Brightness Sun altitude
Rises 01:12:04 0° 314° (NW) 3,241 ? -16.6°
Reaches altitude 10° 01:15:15 10° 296° (WNW) 2,247 ? -16.3°
Maximum altitude 01:18:34 18° 255° (WSW) 1,712 ? -16.1°
Enters shadow 01:18:54 18° 250° (WSW) 1,711 ? -16.0°
Drops below altitude 10° 01:21:43 10° 214° (SSW) 2,105 - -15.8°
Sets 01:24:35 0° 194° (SSW) 2,955 - -15.6°
